Skip Page Navigation
NASA JPL Caltech
NASA Logo - Jet Propulsion Laboratory + View the NASA Portal
+ Center for Near-Earth Object Studies
JPL Home Earth Solar System Stars & Galaxies Technology
JPL Solar System Dynamics
BODIES ORBITS EPHEMERIDES TOOLS PHYSICAL DATA DISCOVERY FAQ SITE MAP
IMPORTANT: The SSD Announcement email list is now available. Major changes are coming in the near future, including possible hostname and/or URL changes. To be notified of such changes, subscribe to this email list.

Please visit this page for more details.


JPL Small-Body Database Browser
Search: [ help ]  
347875 (2002 TA24)
Classification: Main-belt Asteroid          SPK-ID: 2347875
Ephemeris | Orbit Diagram | Orbital Elements | Mission Design | Physical Parameters | Discovery Circumstances ]

[ show orbit diagram ]
Orbital Elements at Epoch 2459000.5 (2020-May-31.0) TDB
Reference: JPL 7 (heliocentric ecliptic J2000)
 Element Value Uncertainty (1-sigma)   Units 
e .2255283250727637 8.3448e-08  
a 2.812424207038683 2.829e-08 au
q 2.178142886231154 2.4238e-07 au
i 7.980838784409677 8.9296e-06 deg
node 21.87513368489763 6.2553e-05 deg
peri 356.7553646036536 6.5598e-05 deg
M 266.9629223472622 2.2128e-05 deg
tp 2459445.718526121436
(2021-Aug-19.21852612)
0.00011036 TDB
period 1722.739723209701
4.72
2.5993e-05
7.116e-08
d
yr
n .2089694659906434 3.153e-09 deg/d
Q 3.446705527846213 3.467e-08 au
  Orbit Determination Parameters
   # obs. used (total)      168  
   data-arc span      6031 days (16.51 yr)  
   first obs. used      2002-10-02  
   last obs. used      2019-04-07  
   planetary ephem.      DE431  
   SB-pert. ephem.      SB431-N16  
   condition code      0  
   norm. resid. RMS      .62714  
   source      ORB  
   producer      Otto Matic  
   solution date      2020-Feb-25 23:30:21  

Additional Information
 Earth MOID = 1.18047 au 
 Jupiter MOID = 2.01577 au 
 T_jup = 3.269 
[ show covariance matrix ]

Ephemeris | Orbit Diagram | Orbital Elements | Mission Design | Physical Parameters | Discovery Circumstances ]

Physical Parameter Table
Parameter Symbol Value Units Sigma Reference Notes
absolute magnitude H 16.4   n/a MPO437472  

347875 (2002 TA24)          Discovered 2002-Oct-02 by LINEAR at Socorro
Reference: 20121228/Numbers.arcLast Updated: 2013-01-02

Alternate Designations
 2002 TA24 = 2007 WL61 = 2010 JV32 
Ephemeris | Orbit Diagram | Orbital Elements | Mission Design | Physical Parameters | Discovery Circumstances ]
ABOUT SSD CREDITS/AWARDS PRIVACY/COPYRIGHT GLOSSARY LINKS
FirstGov 2020-Mar-29 21:40 UT
(server date/time)  
NASA Home Page
Site Manager:   Ryan S. Park
Webmaster  Alan B. Chamberlin